Flag for U.S.A. Weather past 2 weeks in Asheville, North Carolina, U.S.A.

Now
58 °F

Sunny.


Feels Like: 55 °F
Forecast: 43 / 69 °F
Wind: 14 mph from North

Location: Asheville Regional Airport

Current Time: Apr 21, 2015 at 8:38:01 PM

Latest Report: Apr 21, 2015 at 7:54 PM


Visibility: 10 mi

Pressure: 29.88 "Hg

Humidity: 30%

Dew point: 26 °F

Location of AshevilleLocation

Historic Weather in Asheville — Graph

°F

Asheville temperature yesterday

Maximum temperature yesterday: 72 °F (at 1:54 PM)
Minimum temperature yesterday: 56 °F (at 6:54 AM)
Average temperature yesterday: 63 °F

Past Weeks' High & Low Weather Summary

 TemperatureHumidityPressure
High81 °F (Apr 9, 12:54 PM)97% (Apr 8, 12:54 AM)30.35 "Hg (Apr 8, 12:54 AM)
Low41 °F (Apr 12, 6:54 AM)18% (Apr 11, 5:54 PM)29.59 "Hg (Apr 20, 5:54 PM)
Average61 °F75%30.05 "Hg
* Reported Apr 6 6:54 PM — Apr 21 6:54 PM, Asheville, Weather by CustomWeather, © 2015

Note: Actual official high and low records may vary slightly from our data, if they occured in-between our weather recording intervals... More about our weather records

Advertising

Asheville weather history for previous 24 hours

 ConditionsComfort  
Time TempWeatherWind HumidityBarometerVisibility
6:54 PM
Tue, Apr 21
61 °FSunny.14 mph26%29.87 "Hg10 mi
5:54 PM63 °FSunny.16 mph27%29.84 "Hg10 mi
4:54 PM64 °FSunny.16 mph27%29.83 "Hg10 mi
3:54 PM65 °FSunny.12 mph28%29.83 "Hg10 mi
2:54 PM64 °FSunny.12 mph30%29.85 "Hg10 mi
1:54 PM63 °FSunny.3 mph33%29.86 "Hg10 mi
12:54 PM61 °FScattered clouds.5 mph36%29.89 "Hg10 mi
11:54 AM58 °FScattered clouds.7 mph39%29.90 "Hg10 mi
10:54 AM56 °FSunny.8 mph47%29.90 "Hg10 mi
9:54 AM53 °FPassing clouds.10 mph52%29.90 "Hg10 mi
8:54 AM55 °FOvercast.10 mph51%29.88 "Hg10 mi
7:54 AM50 °FPartly sunny.6 mph61%29.86 "Hg10 mi
6:54 AM49 °FClear.6 mph57%29.82 "Hg10 mi
5:54 AM48 °FClear.8 mph59%29.80 "Hg10 mi
4:54 AM50 °FClear.13 mph59%29.80 "Hg10 mi
3:54 AM49 °FClear.12 mph66%29.80 "Hg10 mi
2:54 AM50 °FClear.13 mph66%29.80 "Hg10 mi
1:54 AM52 °FPassing clouds.12 mph57%29.80 "Hg10 mi
12:54 AM54 °FPassing clouds.13 mph55%29.78 "Hg10 mi
11:54 PM
Mon, Apr 20
57 °FClear.17 mph62%29.74 "Hg10 mi
10:54 PM61 °FClear.9 mph41%29.72 "Hg10 mi
9:54 PM62 °FClear.9 mph44%29.69 "Hg10 mi
8:54 PM62 °FScattered clouds.5 mph80%29.65 "Hg10 mi
Weather by CustomWeather, © 2015

See weather overviewHow to use our weather pages